KD9BEW Weather Reports


Display with metric or nautical units.
time (UTC)temp
F
wind
direction
speed
MPH
gust
MPH
rain 1hr
in
rain 24hr
in
rain mn
in
humidity
%
barometer
mb
20260903220127 79 28 4.0 12.0 0.00 0.00 0.00 63 1011.9
20260903214604 81 43 1.0 10.0 0.00 0.00 0.00 62 1011.9
20260903213059 80 350 2.0 9.0 0.00 0.00 0.00 63 1011.8
20260903211605 81 31 4.0 8.0 0.00 0.00 0.00 60 1011.6
20260903210111 82 271 4.0 9.0 0.00 0.00 0.00 60 1011.5
20260903204602 82 360 2.0 6.0 0.00 0.00 0.00 61 1011.7
20260903203109 82 32 2.0 7.0 0.00 0.00 0.00 62 1011.8
20260903201606 82 318 2.0 5.0 0.00 0.00 0.00 63 1012.0
20260903200113 81 40 2.0 4.0 0.00 0.00 0.00 64 1012.2
20260903194559 81 293 1.0 4.0 0.00 0.00 0.00 66 1012.1
20260903193105 80 43 1.0 6.0 0.00 0.00 0.00 65 1012.1
20260903191603 80 53 1.0 3.0 0.00 0.00 0.00 66 1012.2
20260903184606 82 34 1.0 6.0 0.00 0.00 0.00 64 1012.2
20260903183106 83 27 2.0 6.0 0.00 0.00 0.00 63 1012.2
20260903181604 83 40 2.0 10.0 0.00 0.00 0.00 62 1012.3
20260903174601 81 0 1.0 5.0 0.00 0.00 0.00 66 1012.9
20260903173106 78 27 2.0 5.0 0.00 0.00 0.00 68 1013.0
20260903171603 78 44 2.0 7.0 0.00 0.00 0.00 68 1013.1
20260903170120 77 290 1.0 8.0 0.00 0.00 0.00 71 1013.3
20260903164603 75 17 1.0 8.0 0.00 0.00 0.00 72 1013.4
20260903163106 74 28 2.0 6.0 0.00 0.00 0.00 74 1013.5
20260903161606 73 0 2.0 6.0 0.00 0.00 0.00 74 1013.5
20260903154605 72 32 1.0 6.0 0.00 0.00 0.00 75 1013.7
20260903153105 71 0 1.0 5.0 0.00 0.00 0.00 76 1013.8
20260903151603 70 0 2.0 5.0 0.00 0.00 0.00 77 1013.8
20260903150113 68 30 1.0 5.0 0.00 0.00 0.00 80 1013.9
20260903144606 65 352 0.0 1.0 0.00 0.00 0.00 83 1014.1
20260903143105 64 0 0.0 1.0 0.00 0.00 0.00 84 1014.1
20260903141614 63 0 0.0 1.0 0.00 0.00 0.00 85 1014.4
20260903140104 62 0 0.0 1.0 0.00 0.00 0.00 85 1014.2
20260903134626 62 0 0.0 1.0 0.00 0.00 0.00 86 1014.2
20260903133113 62 42 0.0 1.0 0.00 0.00 0.00 87 1014.2
20260903131605 60 0 0.0 3.0 0.00 0.00 0.00 89 1014.3
20260903130105 58 0 0.0 0.0 0.00 0.00 0.00 91 1014.4
20260903124608 57 0 0.0 0.0 0.00 0.00 0.00 91 1014.1
20260903123103 56 0 0.0 0.0 0.00 0.00 0.00 92 1014.0
20260903121601 56 0 0.0 0.0 0.00 0.00 0.00 92 1014.1
20260903120122 56 0 0.0 0.0 0.00 0.00 0.00 92 1014.0
20260903114604 56 0 0.0 0.0 0.00 0.00 0.00 92 1013.9
20260903113104 55 0 0.0 0.0 0.00 0.00 0.00 92 1013.9
20260903111604 55 0 0.0 0.0 0.00 0.00 0.00 91 1013.8
20260903110105 55 0 0.0 0.0 0.00 0.00 0.00 91 1013.5
20260903104625 56 0 0.0 0.0 0.00 0.00 0.00 91 1013.6
20260903103105 56 0 0.0 0.0 0.00 0.00 0.00 91 1013.8
20260903101605 56 0 0.0 0.0 0.00 0.00 0.00 91 1013.7
20260903100059 56 0 0.0 0.0 0.00 0.00 0.00 91 1013.6
20260903094627 56 0 0.0 0.0 0.00 0.00 0.00 91 1013.7
20260903093104 57 0 0.0 0.0 0.00 0.00 0.00 90 1013.4
20260903091615 57 0 0.0 0.0 0.00 0.00 0.00 90 1013.4
20260903090106 57 0 0.0 0.0 0.00 0.00 0.00 90 1013.4
20260903084604 58 0 0.0 0.0 0.00 0.00 0.00 90 1013.3
20260903083103 58 0 0.0 0.0 0.00 0.00 0.00 90 1013.5
20260903081604 59 0 0.0 0.0 0.00 0.00 0.00 89 1013.5
20260903080103 59 0 0.0 0.0 0.00 0.00 0.00 89 1013.6
20260903074606 60 0 0.0 0.0 0.00 0.00 0.00 88 1013.6
20260903073101 60 0 0.0 0.0 0.00 0.00 0.00 88 1013.7
20260903071616 60 0 0.0 0.0 0.00 0.00 0.00 88 1013.7
20260903070106 61 0 0.0 0.0 0.00 0.00 0.00 88 1014.0
20260903064559 61 0 0.0 0.0 0.00 0.00 0.00 88 1014.0
20260903063113 61 0 0.0 0.0 0.00 0.00 0.00 88 1014.2
20260903061602 60 0 0.0 0.0 0.00 0.00 0.00 88 1014.2
20260903060104 61 0 0.0 0.0 0.00 0.00 0.00 87 1014.2
20260903054604 61 0 0.0 0.0 0.00 0.00 0.00 87 1014.4
20260903053117 61 0 0.0 0.0 0.00 0.00 0.00 87 1014.3
20260903051601 61 0 0.0 0.0 0.00 0.00 0.00 87 1014.2
20260903050108 61 0 0.0 0.0 0.00 0.00 0.00 86 1014.1
20260903044604 61 0 0.0 0.0 0.00 0.00 0.00 86 1014.2
20260903043113 61 0 0.0 0.0 0.00 0.00 0.00 86 1013.9
20260903041601 62 0 0.0 0.0 0.00 0.00 0.00 86 1013.8
20260903040108 62 0 0.0 0.0 0.00 0.00 0.00 85 1013.6
20260903034611 63 0 0.0 0.0 0.00 0.00 0.00 85 1013.8
20260903033104 63 0 0.0 0.0 0.00 0.00 0.00 84 1013.8
20260903031633 64 0 0.0 0.0 0.00 0.00 0.00 83 1013.9
20260903030106 64 0 0.0 0.0 0.00 0.00 0.00 82 1013.6
20260903024611 65 0 0.0 0.0 0.00 0.00 0.00 81 1013.7
20260903023128 66 0 0.0 0.0 0.00 0.00 0.00 80 1013.7
20260903021607 66 0 0.0 0.0 0.00 0.00 0.00 78 1013.6
20260903020107 67 0 0.0 0.0 0.00 0.00 0.00 77 1013.7
20260903014606 68 0 0.0 0.0 0.00 0.00 0.00 75 1013.6
20260903013109 69 0 0.0 0.0 0.00 0.00 0.00 73 1013.6
20260903011615 70 0 0.0 0.0 0.00 0.00 0.00 70 1013.3
20260903010104 72 0 0.0 0.0 0.00 0.00 0.00 68 1013.1
20260903004603 73 0 0.0 0.0 0.00 0.00 0.00 65 1013.0
20260903003110 75 0 0.0 1.0 0.00 0.00 0.00 64 1012.9
20260903001614 76 30 0.0 1.0 0.00 0.00 0.00 62 1012.9
20260903000104 77 13 1.0 4.0 0.00 0.00 0.00 60 1012.9
20260902234601 78 61 2.0 6.0 0.00 0.00 0.00 58 1012.8
20260902233105 79 51 2.0 4.0 0.00 0.00 0.00 56 1012.8
20260902231607 81 0 1.0 6.0 0.00 0.00 0.00 54 1012.5
20260902230107 82 49 2.0 6.0 0.00 0.00 0.00 52 1012.4
20260902224609 83 45 2.0 6.0 0.00 0.00 0.00 50 1012.4
20260902223105 84 33 2.0 4.0 0.00 0.00 0.00 50 1012.4
20260902221609 84 28 1.0 5.0 0.00 0.00 0.00 50 1012.3